www.pogodaiklimat.ru

Погода и климат >> Архив погоды >> Нигер >> Тиллабери


ПОГОДА в Тиллабери

  • Прогноз погоды в Тиллабери
  • Монитор погоды в Тиллабери

АРХИВ ПОГОДЫ в Тиллабери

Время (UTC), дата Ветер
(напр.,м/с)
 
Видим.   Явления Облачность Т
(С)
Тd
(С)
f
(%)
Тe
(С)
Тes
(С)
Комфортность P
(гПа)
Po
(гПа)
Тmin
(С)
Tmax
(С)
R
(мм)
R24
(мм)
S
(см)
06 14.03 штиль 0 3000 м пыль 6/0
[Ac und Ci sp]
+23.0 +11.7 49 +25 +25 комфорт 1008.7 985.3 +22.8
09 14.03 В 4 4000 м пыль 6/0
[Ci sp]
+32.0 -6.4 8 +28 +34 жарко 1010.0 987.0
12 14.03 ЮВ 6 4000 м пыль 6/0
[Ci sp]
+37.5 +4.8 13 +35 +42 очень
жарко
1008.4 985.3
15 14.03 штиль 0 6000 м мгла 6/0
[Ci sp]
+40.0 +3.3 10 +37 +48 очень
жарко
1005.5 982.5
18 14.03 штиль 0 3000 м пыль 6/0
[Ci sp]
+37.0 +8.8 18 +35 +35 очень
жарко
1006.6 983.3 +40.5
21 14.03 штиль 0 8000 м 6/0
[Ci sp]
+30.8 +9.3 26 +30 +30 жарко 1008.3 985.1
03 15.03 СВ 8 3000 м пыль 6/0
[Ci sp]
+28.5 -3.6 12 +25 +25 комфорт 1007.3 984.3
06 15.03 В 6 3000 м пыль 6/0
[Ci sp]
+27.0 -1.9 15 +25 +25 комфорт 1008.3 985.1 +26.8
09 15.03 ЮВ 8 3000 м пыль 6/0
[Cs]
+31.8 -3.0 10 +28 +30 жарко 1009.5 986.3
12 15.03 ЮВ 8 3500 м пыль 6/0
[Ci sp]
+37.5 -1.6 8 +33 +37 жарко 1008.6 985.5
15 15.03 ЮВ 4 4500 м пыль 6/0
[Ci sp]
+40.7 -2.4 7 +37 +43 очень
жарко
1005.5 982.6
18 15.03 штиль 0 4500 м пыль 6/0
[Ci sp]
+38.0 -0.4 9 +34 +34 очень
жарко
1005.6 982.6 +41.0
21 15.03 штиль 0 6000 м пыль 6/0
[Ci sp]
+33.2 +4.1 16 +31 +31 жарко 1008.1 985.0
03 16.03 штиль 0 6000 м пыль 6/0
[Ci sp]
+28.5 +5.8 24 +27 +27 жарко 1006.9 984.0
06 16.03 СВ 6 4500 м пыль 6/0
[Ci sp]
+28.0 -1.6 14 +25 +25 комфорт 1007.3 984.2 +27.6
09 16.03 ЮВ 16 2500 м пыльный позёмок 9/0
[Cs]
+33.0 -5.9 8 +29 +29 жарко 1010.7 987.6
12 16.03 ЮВ 10 2000 м пыль 9/0
[Cs]
+38.0 -3.8 7 +34 +35 очень
жарко
1009.7 986.7
15 16.03 ЮВ 6 3000 м пыль 9/0
[Cs]
+40.0 -1.1 8 +36 +39 очень
жарко
1007.0 984.0
18 16.03 штиль 0 3000 м пыль 8/0
[Ac trans Ci sp]
+37.7 +4.6 13 +35 +35 очень
жарко
1007.4 984.3 +40.5
21 16.03 штиль 0 8000 м мгла 9/0
[Cs]
+31.8 +11.7 29 +32 +32 жарко 1009.2 986.0
03 17.03 штиль 0 6000 м мгла 6/0
[Ci sp]
+29.0 +3.9 20 +27 +27 жарко 1008.4 985.5
06 17.03 штиль 0 8000 м мгла 6/0
[Ci sp]
+27.5 +0.6 17 +25 +25 комфорт 1009.9 986.7 +25.8
09 17.03 СВ 8 4000 м пыль 9/0
[Ac und Ci sp]
+32.5 -4.6 9 +29 +30 жарко 1010.9 987.8
12 17.03 Ю 10 3500 м пыль 9/0
[Ac und Ci sp]
+36.0 +6.4 16 +34 +34 очень
жарко
1009.7 986.6
15 17.03 СВ 8 3500 м пыль 9/0
[Ac As Ci sp]
+35.0 +9.3 21 +34 +34 очень
жарко
1007.8 984.7
18 17.03 штиль 0 3500 м пыль 9/0
[Ac As Ci sp]
+33.0 +9.6 24 +32 +32 жарко 1007.9 984.7 +37.5
21 17.03 штиль 0 4000 м пыль 9/0
[Ac cast Ci sp]
+31.0 +12.4 32 +32 +32 жарко 1008.3 985.1
03 18.03 штиль 0 4500 м пыль 9/0
[Ac lent Ci sp]
+26.5 +16.5 54 +30 +30 душно 1007.4 984.2
06 18.03 штиль 0 4500 м пыль 9/0
[Ac lent Cs]
+25.5 +6.4 29 +25 +25 комфорт 1008.0 984.7 +25.5
09 18.03 штиль 0 1500 м пыль 9/0
[Cs]
+30.5 +8.8 26 +30 +42 жарко 1010.3 987.0
12 18.03 Ю 4 1500 м пыль 9/0
[Ac und Ci sp]
+36.6 +5.7 15 +34 +43 очень
жарко
1008.9 985.8
15 18.03 ЮВ 2 2500 м пыль 9/0
[Cs]
+39.0 +4.8 12 +36 +44 очень
жарко
1006.2 983.2
18 18.03 штиль 0 1500 м пыль 9/0
[Cs]
+37.0 +8.2 17 +35 +35 очень
жарко
1006.9 983.7 +40.0
21 18.03 штиль 0 3000 м пыль 9/0
[Ac und Ci sp]
+32.8 +10.6 26 +32 +32 жарко 1008.0 984.9
03 19.03 штиль 0 3000 м пыль 9/0
[Ac und Ci sp]
+28.4 +12.7 38 +30 +30 жарко 1006.2 983.2
06 19.03 штиль 0 3000 м пыль 9/0
[Ac As Ci sp]
+28.2 +10.6 33 +29 +29 жарко 1005.9 982.9 +27.6
09 19.03 ЮВ 6 3500 м пыль 9/0
[Cs]
+36.5 +0.3 10 +33 +36 жарко 1007.0 984.1
12 19.03 Ю 4 3500 м пыль 9/0
[Cs]
+40.8 +5.1 11 +38 +49 очень
жарко
1006.2 983.4
15 19.03 ЮВ 4 4000 м пыль 9/0
[Cs]
+42.0 +7.7 13 +40 +45 очень
жарко
1003.2 980.4
18 19.03 штиль 0 4000 м пыль 9/0
[Ac As Ci sp]
+38.8 +10.8 19 +38 +38 очень
жарко
1003.1 980.2 +42.5
21 19.03 штиль 0 4000 м пыль 9/0
[Ac lent Cs]
+34.4 +11.2 24 +34 +34 очень
жарко
1005.1 982.3
03 20.03 штиль 0 4500 м пыль 9/0
[Cs]
+27.7 +14.9 46 +30 +30 жарко 1004.5 981.5
06 20.03 штиль 0 4500 м пыль 9/0
[Cs]
+26.4 +13.4 45 +28 +28 жарко 1005.2 982.3 +26.0
09 20.03 СВ 4 6000 м мгла 9/0
[Cs]
+35.0 +0.6 11 +31 +38 жарко 1007.9 985.0
12 20.03 С 6 6000 м пыль 9/0
[Cs]
+42.0 +1.8 8 +38 +45 очень
жарко
1006.3 983.5
15 20.03 СВ 6 6000 м мгла 9/0
[Cs]
+42.5 +2.0 8 +39 +42 очень
жарко
1003.6 980.8
18 20.03 штиль 0 6000 м мгла 9/0
[Ac und Cs]
+38.2 +5.9 14 +36 +36 очень
жарко
1004.1 981.0 +43.2
21 20.03 штиль 0 8000 м мгла 6/0
[Ci sp]
+34.0 +4.1 15 +31 +31 жарко 1005.6 982.7

 

Местоположение метеостанции Тиллабери (Нигер): широта 14.20 долгота 1.45 высота над уровнем моря 210 м.

В архиве по умолчанию представлена погода в Тиллабери за последнюю неделю. Архивные данные за месяц целиком и за предыдущие месяцы, начиная с января 2011 года, Вы можете получить, выбрав интересующий диапазон дат из раскрывающегося списка и нажав кнопку "Ввод!".


*Определитесь, кто Вы:
робот инопланетянин человек

Внимание! Время в таблицах - всемирное. Для получения местного времени необходимо прибавить поправку, которая равна 1 ч.

Смотрите также архив погоды в соседних городах и на ближайших метеорологических станциях:

Погода в Ниамее (Нигер) (112 км)
Погода в Дори (Буркина-Фасо) (161 км)
Погода в Досо (Нигер) (231 км)
Погода в Фада-Нгурме (Буркина-Фасо) (268 км)
Погода в Гае (Нигер) (337 км)
Погода в Канди (Бенин) (377 км)
Погода в Уагадугу (Буркина-Фасо) (382 км)
Погода в Дапаоне (Того) (389 км)
Погода в Вирнин-Конни (Нигер) (413 км)
Погода в Тахве (Нигер) (416 км)

Пояснения к столбцам:

Ветер - указаны скорость ветра в м/с - средняя за 10 мин, порывы в срок и между сроками (в фигурных скобках) и направление, откуда дует ветер: С - северный, СВ - северо-восточный, В - восточный, ЮВ - юго-восточный, Ю - южный, ЮЗ - юго-западный, З - западный, СЗ - северо-западный.
Видимость - горизонтальная дальность видимости в метрах или километрах. При видимости от 1 до 10 км при отсутствии осадков обычно наблюдается дымка, при ухудшении видимости до 1 км и менее - туман. В сухую погоду видимость может ухудшаться дымом, пылью или мглою.
Явления - указаны атмосферные явления, наблюдавшиеся в срок или в последний час перед сроком; фигурными скобками обозначены явления, наблюдавшиеся между сроками (за 1-3 часа до срока); квадратными скобками обозначены град или гололедные отложения с указанием их диаметра в мм.
Облачность - указаны через наклонную черту общая и нижняя облачность в баллах и высота нижней границы облаков в метрах; квадратными скобками обозначены формы облаков: Ci - перистые, Cs - перисто-слоистые, Cc - перисто-кучевые, Ac - высококучевые, As - высокослоистые, Sc - слоисто-кучевые, Ns - слоисто-дождевые, Cu - кучевые, Cb - кучево-дождевые. Подробнее классификацию облаков см. в Атласе облаков (PDF).
T - Температура воздуха - температура, измеренная на высоте 2 м над землей.
Td - Температура точки росы - температура, при понижении до которой содержащийся в воздухе водяной пар достигнет насыщения.
f - Относительная влажность воздуха - влажноcть воздуха, измеренная на высоте 2 м над землей.
Te - Эффективная температура - температура, которую ощущает одетый по сезону человек в тени. Характеристика душности погоды. При расчете учитывается влияние влажности воздуха и скорости ветра на теплоощущения человека.
Tes - Эффективная температура на солнце - температура, которую ощущает человек, с поправкой на солнечный нагрев. Характеристика знойности погоды. Зависит от высоты солнца над горизонтом, облачности и скорости ветра. Ночью, в пасмурную погоду, а также при ветре 12 м/с и более поправка равна нулю.
P - Атмосферное давление - приведенное к уровню моря атмосферное давление.
Po - Атмосферное давление - измеренное на уровне метеостанции атмосферное давление.
Tmin - Минимальная температура - минимум температуры воздуха на высоте 2 м над землей.
Tmax - Максимальная температура - максимум температуры воздуха на высоте 2 м над землей.
R - Количество осадков - Количество выпавших осадков за период времени, мм. При наведении курсора мыши на число - период времени, за который выпало указанное количество осадков.
R24 - Количество осадков - Количество выпавших осадков за 24 часа, мм.
S - Снежный покров - Высота снежного покрова, см. При наведении курсора мыши на число - состояние снежного покрова и степень покрытия местности в баллах.